Home   Weather   Zhengzhou   Past weeks

Flag for China Past Weather in Zhengzhou, Henan, China — Yesterday and Last 2 Weeks

Now
54 °F

Haze.


Feels Like: 50 °F
Forecast: 38 / 56 °F
Wind: 10 mph from Southwest

Location: Zhengzhou Airport

Current Time: Dec 6, 2016 at 4:14:04 pm

Latest Report: Dec 6, 2016 at 3:00 pm


Visibility: 2 mi

Pressure: 30.18 "Hg

Humidity: 30%

Dew Point: 23 °F

Location of ZhengzhouLocation

Past Weather in Zhengzhou — Graph

°F

Zhengzhou Temperature Yesterday

Maximum temperature yesterday: 50 °F (at 11:00 am)
Minimum temperature yesterday: 34 °F (at 11:00 pm)
Average temperature yesterday: 43 °F

High & Low Weather Summary for the Past Weeks

 TemperatureHumidityPressure
High70 °F (Dec 4, 2:00 pm)100% (Nov 21, 3:00 pm)30.72 "Hg (Nov 21, 3:00 pm)
Low16 °F (Nov 24, 4:00 am)13% (Dec 4, 2:00 pm)29.95 "Hg (Dec 4, 3:00 pm)
Average40 °F70%30.37 "Hg
* Reported Nov 21 3:00 pm — Dec 6 3:00 pm, Zhengzhou, Weather by CustomWeather, © 2016

Note: Actual official high and low records may vary slightly from our data, if they occured in-between our weather recording intervals... More about our weather records

Advertising

Zhengzhou Weather History for the Previous 24 Hours

Scroll right to see more
 ConditionsComfort  
Time TempWeatherWind HumidityBarometerVisibility
3:00 pm
Tue, Dec 6
54 °FHaze.10 mph30%30.18 "Hg2 mi
2:00 pm54 °FHaze.13 mph35%30.18 "Hg2 mi
1:00 pm52 °FHaze.13 mph35%30.24 "Hg2 mi
12:00 pm52 °FHaze.10 mph35%30.30 "Hg2 mi
11:00 am48 °FHaze.10 mph43%30.33 "Hg2 mi
10:00 am43 °FHaze.8 mph66%30.39 "Hg1 mi
9:00 am39 °FFog.6 mph81%30.39 "Hg1 mi
8:00 am37 °FFog.3 mph81%30.39 "Hg1 mi
7:00 am37 °FFog.6 mph81%30.42 "Hg2 mi
6:00 am39 °FFog.6 mph81%30.42 "Hg2 mi
5:00 am39 °FFog.6 mph81%30.45 "Hg2 mi
4:00 am39 °FFog.3 mph81%30.48 "Hg2 mi
3:00 am39 °FFog.3 mph81%30.48 "Hg2 mi
2:00 am39 °FFog.3 mph81%30.51 "Hg2 mi
1:00 am32 °FIce fog.1 mph100%30.51 "Hg2 mi
12:00 am32 °FIce fog.1 mph93%30.54 "Hg2 mi
11:00 pm
Mon, Dec 5
34 °FFog.1 mph93%30.54 "Hg2 mi
10:00 pm39 °FFog.1 mph87%30.57 "Hg2 mi
9:00 pm37 °FFog.3 mph87%30.57 "Hg2 mi
8:00 pm36 °FFog.1 mph93%30.54 "Hg1 mi
7:00 pm39 °FFog.1 mph81%30.54 "Hg1 mi
6:00 pm43 °FHaze.1 mph71%30.51 "Hg1 mi
5:00 pm45 °FHaze.8 mph66%30.48 "Hg1 mi
4:00 pm46 °FHaze.13 mph66%30.45 "Hg1 mi
Weather by CustomWeather, © 2016

See weather overviewHow to use our weather pages